{"data":{"norad_id":58629,"epoch":"2026-09-20T02:44:01.112064Z","epoch_age_seconds":183078,"freshness":"STALE","line1":"1 58629U 23203M   26263.11390176 -.00000286  00000+0 -86022-6 0  9998","line2":"2 58629  43.0027  52.7307 0001346 269.8491  90.2207 15.27578187153252","mean_motion":15.27578187,"eccentricity":0.0001346,"inclination_deg":43.0027,"raan_deg":52.7307,"arg_perigee_deg":269.8491,"mean_anomaly_deg":90.2207,"bstar":-8.6022e-7,"rev_number":15325,"period_min":94.266860593762,"perigee_km":482.13100844,"apogee_km":483.97804119849,"semimajor_km":6861.1915248192,"source":"CELESTRAK","updated_at":"2026-09-21T09:00:33.923821Z"}}